Погода в Фодже

Италия     41°27′59″N   15°32′30″E
темп.,
°C
ветер,
м/с
пор.,
м/с
влажн.,
%
обл.,
%
осадки,
мм/ч
давл.,
гПа
погр.,
м
23 октября, сб
сб2323:00+18ююз22667 0.0 101722
02:00+17ююз117069 0.0 101811
05:00+16з227925 0.0 101713
08:00+16сз117892 0.0 101831
11:00+20сз346231 0.0 1020635
14:00+22ссз655497 0.0 10201164
17:00+19ссз6765100 0.0 1020632
20:00+17сз4782100 0.0 1022349
24 октября, вс
вс2423:00+16сз5984100 0.0 1024384
02:00+15сз599199 0.0 1024393
05:00+15сз5988100 0.0 1024432
08:00+15сз5985100 0.0 1024468
11:00+18ссз6667100 0.0 1025849
14:00+19ссз666161 0.0 1024867
17:00+17ссз5665100 0.0 1024611
20:00+15ссз577171 0.0 1024444
25 октября, пн
пн2523:00+14сз477588 0.0 1025301
02:00+13сз37847 0.0 1024205
05:00+12сз47897 0.0 1023186
08:00+12сз35910 0.0 1023160
11:00+16ссз32640 0.0 1023699
14:00+19вюв34473 0.0 10221298
17:00+18в555799 0.0 1021814
20:00+16всв236629 0.0 1022344
26 октября, вт
вт2623:00+14с11735 0.0 102212
02:00+14сз117497 0.0 102150
05:00+14с127598 0.0 1020114
08:00+14ссз117898 0.0 102082
11:00+18вюв345628 0.0 1020788
14:00+20в434797 0.0 10181561
17:00+18в4553100 0.0 1018512
20:00+15ююв116799 0.0 102014
27 октября, ср
ср2723:00+14с1171100 0.0 102010
02:00+13сз2278100 0.0 102031
05:00+13сз2387100 0.0 102066
08:00+13сз2491100 0.0 1020119
11:00+16ссз3368100 0.1 1021694
14:00+19ссз3452100 0.1 10201496
17:00+17ссз5660100 0.1 1020787
20:00+14ссз5773100 0.1 1021473